Find Geely Xingzuo 06 zu 10 xing

NORAD ID: 65722 Int'l Des: 2025-214 Owner: GEESP Country: CN Constellation: geesatcom operational
LEOCIRCULAR

Live Position

Loading 3D Globe...

About Geely Xingzuo 06 zu 10 xing

Description loading...

Upcoming Passes

Passes for default location (London). Set your location on the main map for personalized predictions.

Altitude History

Loading altitude history...

Two-Line Element Set

1 65722U 25214L 26103.65606032 .00001002 00000-0 14893-3 0 9997
2 65722 49.9898 247.6444 0011696 345.2219 14.8376 14.83164170 29927
Epoch: Apr 13, 2026 • Age: 18 hours

Current Status

Altitude 620.5 km
Velocity 7.56 km/s
Sub-Earth Point 41.89°N, 56.98°W
Launch Date Sep 24, 2025
Age 0.5 years
Type other

Technical Details

Classification Payload
Mass 130.00 kg
Dry Mass 130.00 kg
Total Mass 130.00 kg
Length 1.00 m
Diameter 0.50 m
Span 2.00 m
Shape Box + 2 pan
Manufacturer GWCG
Bus Type GPS100
Phase Status In Orbit
Owner/State GEESP/CN

Most Searched